Miscellaneous Local Product
Issued by NWS Hastings, NE

Home | Current Version | Previous Version | Text Only | Print | Product List | Glossary Off
Versions: 1 2 3 4 5 6 7 8 9 10 11 12 13 14 15 16 17 18 19 20 21 22 23 24 25 26 27 28 29 30 31 32 33 34 35 36 37 38 39 40 41 42 43 44 45 46 47 48 49 50

000
AXUS43 KGID 201102
MISGRI

GID CWA HOURLY WEATHER ROUNDUP
NATIONAL WEATHER SERVICE HASTINGS NE
500 AM CST MON NOV 20 2017

NOTE: "FAIR" INDICATES FEW OR NO CLOUDS BELOW 12,000 FEET WITH NO
SIGNIFICANT WEATHER AND/OR OBSTRUCTIONS TO VISIBILITY.

...SOUTH CENTRAL NEBRASKA...

CITY           SKY/WX    TMP DP  RH WIND       PRES   REMARKS
GRAND ISLAND   CLEAR     36  27  69 SW13      29.76F WCI  27
KEARNEY        CLOUDY    34  24  67 SW13      29.77F WCI  25
HASTINGS       CLOUDY    31  23  72 VRB5      29.79F WCI  26
ORD            CLOUDY    29  21  72 CALM      29.71S
YORK           PTCLDY    30  25  80 CALM      29.79F
AURORA         CLOUDY    32  25  76 SW13      29.76F WCI  22
LEXINGTON      CLOUDY    29  21  72 SW3       29.77F
HOLDREGE       CLOUDY    34  23  65 SW6       29.79S WCI  28
HEBRON         PTCLDY    40  23  49 W6        29.82F

...NEBRASKA PANHANDLE...

CITY           SKY/WX    TMP DP  RH WIND       PRES   REMARKS
CHADRON        CLOUDY    29  18  63 S8        29.70F WCI  21
ALLIANCE       CLOUDY    40  13  33 W15       29.72F WCI  32
SCOTTSBLUFF    CLOUDY    42   8  24 W7        29.77F
SIDNEY         CLOUDY    27  14  58 SW8       29.79F WCI  19

...WESTERN AND NORTH CENTRAL NEBRASKA...

CITY           SKY/WX    TMP DP  RH WIND       PRES   REMARKS
VALENTINE      CLOUDY    34  18  52 SW12      29.65F WCI  25
AINSWORTH      CLOUDY    36  18  49 SW3       29.66F
ONEILL         CLOUDY    32  22  67 SW8       29.66F WCI  25
BROKEN BOW     CLOUDY    32  20  61 W8        29.72F WCI  25
IMPERIAL       CLOUDY    25  15  66 SW3       29.80F
NORTH PLATTE   CLOUDY    19  15  84 NW6       29.78F WCI  11
MCCOOK         CLOUDY    27  21  78 W8        29.80F WCI  19

...EASTERN NEBRASKA...

CITY           SKY/WX    TMP DP  RH WIND       PRES   REMARKS
NORFOLK        CLOUDY    31  25  78 S10       29.70F WCI  22
SO SIOUX CITY  CLEAR     28  24  85 E9        29.72F WCI  19
TEKAMAH        CLEAR     35  25  66 S12       29.77F WCI  27
COLUMBUS       CLOUDY    26  21  81 CALM      29.75F
ALBION         CLOUDY    32  25  74 SE5       29.71F WCI  27
OMAHA EPPLEY   CLOUDY    33  25  72 S10       29.81F WCI  25
OFFUTT AFB     CLOUDY    31  25  77 E5        29.81F WCI  27
MILLARD        CLOUDY    35  26  69 S6        29.80F WCI  30
LINCOLN        CLOUDY    39  24  55 S9        29.82F WCI  33
NEBRASKA CITY  CLOUDY    36  27  72 S12       29.84R WCI  27
BEATRICE       PTCLDY    40  25  54 S8        29.84S WCI  34
FALLS CITY     PTCLDY    41  26  55 S13       29.87F

...NORTHERN KANSAS...

CITY           SKY/WX    TMP DP  RH WIND       PRES   REMARKS
GOODLAND       CLOUDY    30  15  53 SW9       29.82F WCI  22
HILL CITY      CLOUDY    30  21  69 SW5       29.82F WCI  25
NORTON         SUNNY     28  18  64 W9        29.80F WCI  20
PHILLIPSBURG   CLEAR     28  21  74 S5        29.82F WCI  23
SMITH CENTER   CLEAR     27  21  80 S9        29.84F WCI  17
HAYS           CLOUDY    30  20  66 SW5       29.86F WCI  25
RUSSELL        CLOUDY    36  21  54 S16       29.84F WCI  26
CONCORDIA      CLOUDY    41  21  44 SW17      29.84F
SALINA         CLEAR     44  23  43 S16       29.90F
TOPEKA         CLOUDY    44  27  51 S14       29.95S



USA.gov is the U.S. government's official web portal to all federal, state and local government web resources and services.